SB KEPS @ AMSAT $ORB08154.O Orbital Elements 08154.OSCAR
HR AMSAT ORBITAL ELEMENTS FOR OSCAR SATELLITES FROM WA5QGD FORT WORTH,TX June 2, 2008 Send Subscribe/unsubscribe to KEPS at http://www.amsat.org/mailman/listinfo/keps BID: ORB08154.O TO ALL RADIO AMATEURS BT
Satellite: AO-07 Catalog number: 07530 Epoch time: 08154.76879452 Element set: 191 Inclination: 101.4677 deg RA of node: 186.7488 deg Eccentricity: 0.0011452 Arg of perigee: 290.0267 deg Mean anomaly: 069.9565 deg Mean motion: 12.53573667 rev/day Decay rate: -2.7e-07 rev/day^2 Epoch rev: 53517 Checksum: 333
Satellite: PO-63 Catalog number: 29712 Epoch time: 08154.21677008 Element set: 497 Inclination: 097.8750 deg RA of node: 212.6835 deg Eccentricity: 0.0015564 Arg of perigee: 071.1359 deg Mean anomaly: 289.1537 deg Mean motion: 14.80169052 rev/day Decay rate: 5.83e-06 rev/day^2 Epoch rev: 7525 Checksum: 325
Satellite: VO-52 Catalog number: 28650 Epoch time: 08153.93920655 Element set: 0946 Inclination: 097.7904 deg RA of node: 220.9676 deg Eccentricity: 0.0027129 Arg of perigee: 187.7804 deg Mean anomaly: 172.3015 deg Mean motion: 14.81466805 rev/day Decay rate: -1.73e-06 rev/day^2 Epoch rev: 16634 Checksum: 331
Satellite: RS-15 Catalog number: 23439 Epoch time: 08153.93617959 Element set: 0156 Inclination: 064.8150 deg RA of node: 159.7085 deg Eccentricity: 0.0147575 Arg of perigee: 125.7464 deg Mean anomaly: 235.7287 deg Mean motion: 11.27552033 rev/day Decay rate: -3.9e-07 rev/day^2 Epoch rev: 55324 Checksum: 328
Satellite: FO-29 Catalog number: 24278 Epoch time: 08153.81291001 Element set: 0802 Inclination: 098.5865 deg RA of node: 072.1115 deg Eccentricity: 0.0349728 Arg of perigee: 255.3283 deg Mean anomaly: 100.8851 deg Mean motion: 13.52937389 rev/day Decay rate: -3.7e-07 rev/day^2 Epoch rev: 58231 Checksum: 316
Satellite: SO-33 Catalog number: 25509 Epoch time: 08153.74188272 Element set: 0211 Inclination: 031.4329 deg RA of node: 043.6798 deg Eccentricity: 0.0355145 Arg of perigee: 252.1882 deg Mean anomaly: 103.9753 deg Mean motion: 14.28216096 rev/day Decay rate: 7.6e-07 rev/day^2 Epoch rev: 50140 Checksum: 298
Satellite: AO-40 Catalog number: 26609 Epoch time: 08153.68288658 Element set: 67 Inclination: 007.5818 deg RA of node: 079.8268 deg Eccentricity: 0.7914964 Arg of perigee: 087.0538 deg Mean anomaly: 350.4585 deg Mean motion: 01.25583385 rev/day Decay rate: -1.6e-07 rev/day^2 Epoch rev: 3484 Checksum: 356
Satellite: UO-11 Catalog number: 14781 Epoch time: 08153.56436541 Element set: 684 Inclination: 098.1547 deg RA of node: 187.3635 deg Eccentricity: 0.0010099 Arg of perigee: 120.8692 deg Mean anomaly: 239.3509 deg Mean motion: 14.79645145 rev/day Decay rate: 1.7e-07 rev/day^2 Epoch rev: 30154 Checksum: 315
Satellite: AO-10 Catalog number: 14129 Epoch time: 08153.20911330 Element set: 0513 Inclination: 025.9536 deg RA of node: 212.5710 deg Eccentricity: 0.5989711 Arg of perigee: 128.4067 deg Mean anomaly: 302.2932 deg Mean motion: 02.05871177 rev/day Decay rate: -8.7e-07 rev/day^2 Epoch rev: 18777 Checksum: 295
/EX SB KEPS @ AMSAT $ORB08154.D Orbital Elements 08154.MICROS
HR AMSAT ORBITAL ELEMENTS FOR THE MICROSATS FROM WA5QGD FORT WORTH,TX June 2, 2008 Send Subscribe/unsubscribe to KEPS at http://www.amsat.org/mailman/listinfo/keps BID: ORB08154.D TO ALL RADIO AMATEURS BT
Satellite: LIBERT Catalog number: 31129 Epoch time: 08154.14938986 Element set: 10 Inclination: 098.0390 deg RA of node: 218.2662 deg Eccentricity: 0.0103346 Arg of perigee: 021.9735 deg Mean anomaly: 338.5800 deg Mean motion: 14.52039984 rev/day Decay rate: 3.39e-06 rev/day^2 Epoch rev: 5973 Checksum: 303
Satellite: CO-56 Catalog number: 28941 Epoch time: 08153.96820363 Element set: 0105 Inclination: 098.1066 deg RA of node: 262.5922 deg Eccentricity: 0.0168577 Arg of perigee: 096.7064 deg Mean anomaly: 265.3409 deg Mean motion: 15.56617045 rev/day Decay rate: 3.0241e-04 rev/day^2 Epoch rev: 12767 Checksum: 329
Satellite: LO-19 Catalog number: 20442 Epoch time: 08153.95610127 Element set: 0263 Inclination: 098.1997 deg RA of node: 143.3809 deg Eccentricity: 0.0011219 Arg of perigee: 216.5332 deg Mean anomaly: 143.5088 deg Mean motion: 14.32033052 rev/day Decay rate: -4.0e-07 rev/day^2 Epoch rev: 95889 Checksum: 295
Satellite: AO-27 Catalog number: 22825 Epoch time: 08153.93908924 Element set: 0983 Inclination: 098.3820 deg RA of node: 114.5331 deg Eccentricity: 0.0007748 Arg of perigee: 310.9959 deg Mean anomaly: 049.0558 deg Mean motion: 14.29239841 rev/day Decay rate: -8.0e-07 rev/day^2 Epoch rev: 76559 Checksum: 345
Satellite: SO-50 Catalog number: 27607 Epoch time: 08153.91755820 Element set: 0618 Inclination: 064.5576 deg RA of node: 100.0119 deg Eccentricity: 0.0085308 Arg of perigee: 282.2162 deg Mean anomaly: 076.9387 deg Mean motion: 14.71359512 rev/day Decay rate: -1.1e-07 rev/day^2 Epoch rev: 29272 Checksum: 302
Satellite: AO-16 Catalog number: 20439 Epoch time: 08153.90625844 Element set: 0336 Inclination: 098.2284 deg RA of node: 134.7501 deg Eccentricity: 0.0010033 Arg of perigee: 219.9963 deg Mean anomaly: 140.0488 deg Mean motion: 14.31794921 rev/day Decay rate: 1.5e-07 rev/day^2 Epoch rev: 95873 Checksum: 307
Satellite: CP3 Catalog number: 31128 Epoch time: 08153.89860635 Element set: 0346 Inclination: 098.0404 deg RA of node: 217.9827 deg Eccentricity: 0.0103516 Arg of perigee: 022.8313 deg Mean anomaly: 337.7384 deg Mean motion: 14.51948803 rev/day Decay rate: -4.7e-07 rev/day^2 Epoch rev: 05971 Checksum: 311
Satellite: CP4 Catalog number: 31122 Epoch time: 08153.75925882 Element set: 0354 Inclination: 098.0429 deg RA of node: 219.9241 deg Eccentricity: 0.0085628 Arg of perigee: 018.0928 deg Mean anomaly: 342.3271 deg Mean motion: 14.55129523 rev/day Decay rate: 5.51e-06 rev/day^2 Epoch rev: 05983 Checksum: 309
Satellite: NO-44 Catalog number: 26931 Epoch time: 08153.75364587 Element set: 0894 Inclination: 067.0538 deg RA of node: 324.4161 deg Eccentricity: 0.0006506 Arg of perigee: 274.6173 deg Mean anomaly: 085.4162 deg Mean motion: 14.29525490 rev/day Decay rate: 1.81e-06 rev/day^2 Epoch rev: 34820 Checksum: 313
Satellite: CO-55 Catalog number: 27844 Epoch time: 08153.65968464 Element set: 318 Inclination: 098.7151 deg RA of node: 162.1428 deg Eccentricity: 0.0010231 Arg of perigee: 155.4448 deg Mean anomaly: 204.7207 deg Mean motion: 14.20581509 rev/day Decay rate: 3.0e-07 rev/day^2 Epoch rev: 25523 Checksum: 293
Satellite: IO-26 Catalog number: 22826 Epoch time: 08153.64580736 Element set: 0689 Inclination: 098.3754 deg RA of node: 115.1674 deg Eccentricity: 0.0008323 Arg of perigee: 308.3620 deg Mean anomaly: 051.6811 deg Mean motion: 14.29488833 rev/day Decay rate: 1.5e-07 rev/day^2 Epoch rev: 76564 Checksum: 323
Satellite: CO-57 Catalog number: 27848 Epoch time: 08153.58523954 Element set: 0270 Inclination: 098.7150 deg RA of node: 161.1676 deg Eccentricity: 0.0009756 Arg of perigee: 159.4878 deg Mean anomaly: 200.6680 deg Mean motion: 14.20390128 rev/day Decay rate: 1.4e-07 rev/day^2 Epoch rev: 25519 Checksum: 325
Satellite: GO-32 Catalog number: 25397 Epoch time: 08153.57268837 Element set: 0613 Inclination: 098.3648 deg RA of node: 189.5057 deg Eccentricity: 0.0000355 Arg of perigee: 326.0947 deg Mean anomaly: 034.0221 deg Mean motion: 14.23143838 rev/day Decay rate: -1.1e-07 rev/day^2 Epoch rev: 51399 Checksum: 311
Satellite: AO-51 Catalog number: 28375 Epoch time: 08153.56006159 Element set: 0115 Inclination: 098.0716 deg RA of node: 179.0088 deg Eccentricity: 0.0083014 Arg of perigee: 199.9361 deg Mean anomaly: 159.8581 deg Mean motion: 14.40609285 rev/day Decay rate: 1.9e-07 rev/day^2 Epoch rev: 20615 Checksum: 316
Satellite: MO-46 Catalog number: 26548 Epoch time: 08153.52517618 Element set: 0114 Inclination: 064.5563 deg RA of node: 178.7370 deg Eccentricity: 0.0028177 Arg of perigee: 326.5931 deg Mean anomaly: 033.3412 deg Mean motion: 14.83264719 rev/day Decay rate: 3.2e-07 rev/day^2 Epoch rev: 41549 Checksum: 309
Satellite: PO-28 Catalog number: 22829 Epoch time: 08153.50000547 Element set: 958 Inclination: 098.3629 deg RA of node: 116.1344 deg Eccentricity: 0.0008809 Arg of perigee: 277.8579 deg Mean anomaly: 082.1605 deg Mean motion: 14.30189844 rev/day Decay rate: -6.9e-07 rev/day^2 Epoch rev: 76588 Checksum: 345
/EX SB KEPS @ AMSAT $ORB08154.W Orbital Elements 08154.WEATHER
HR AMSAT ORBITAL ELEMENTS FOR WEATHER SATELLITES FROM WA5QGD FORT WORTH,TX June 2, 2008 Send Subscribe/unsubscribe to KEPS at http://www.amsat.org/mailman/listinfo/keps BID: ORB08154.W TO ALL RADIO AMATEURS BT
Satellite: NOAA-18 Catalog number: 28654 Epoch time: 08154.65958278 Element set: 451 Inclination: 098.8673 deg RA of node: 095.7687 deg Eccentricity: 0.0014452 Arg of perigee: 359.3440 deg Mean anomaly: 000.7685 deg Mean motion: 14.11168171 rev/day Decay rate: 1.25e-06 rev/day^2 Epoch rev: 15642 Checksum: 332
Satellite: NOAA-14 Catalog number: 23455 Epoch time: 08154.61468123 Element set: 166 Inclination: 098.9470 deg RA of node: 226.8479 deg Eccentricity: 0.0009488 Arg of perigee: 180.3738 deg Mean anomaly: 179.7454 deg Mean motion: 14.13743125 rev/day Decay rate: 1.60e-06 rev/day^2 Epoch rev: 69229 Checksum: 333
Satellite: OKEAN-0 Catalog number: 25860 Epoch time: 08154.58468469 Element set: 382 Inclination: 097.7489 deg RA of node: 145.7791 deg Eccentricity: 0.0001244 Arg of perigee: 037.1094 deg Mean anomaly: 323.0194 deg Mean motion: 14.73523557 rev/day Decay rate: 5.2e-07 rev/day^2 Epoch rev: 47724 Checksum: 321
Satellite: NOAA-10 Catalog number: 16969 Epoch time: 08154.50389317 Element set: 145 Inclination: 098.7226 deg RA of node: 176.5033 deg Eccentricity: 0.0011550 Arg of perigee: 221.5160 deg Mean anomaly: 138.5151 deg Mean motion: 14.27361249 rev/day Decay rate: 1.06e-06 rev/day^2 Epoch rev: 12934 Checksum: 283
